Location: Colorado National Monument
(39.1030°N, 108.7297°W)
Time: 13:55:44
(UTC-06:00)

N. Korean satellite - Visible Passes

Search period start: 21 October 2019 00:00
Search period end: 31 October 2019 00:00
Orbit: 455 x 508 km, 97.2° (Epoch: 20 October)

Date Brightness Start Highest point End Pass type
(mag) Time Alt. Az. Time Alt. Az. Time Alt. Az.
21 Oct 9.9 06:17:37 10° NE 06:20:04 17° E 06:22:30 10° SE visible
22 Oct 10.6 19:35:47 10° W 19:35:56 10° W 19:36:04 10° W visible
23 Oct 7.2 06:59:22 10° NNE 07:02:59 62° E 07:06:37 10° S visible
23 Oct 9.5 19:07:45 10° SSW 19:10:26 21° W 19:13:10 10° NW visible
24 Oct 9.0 06:34:25 10° NE 06:37:37 28° E 06:40:50 10° SSE visible
25 Oct 10.2 06:10:12 10° ENE 06:12:10 14° E 06:14:09 10° SE visible
26 Oct 10.1 19:26:21 10° WSW 19:27:59 13° W 19:29:38 10° WNW visible
27 Oct 7.8 06:51:32 10° NNE 06:55:07 48° E 06:58:42 10° S visible
27 Oct 9.0 18:59:32 10° SSW 19:02:30 27° W 19:05:31 10° NW visible
28 Oct 9.4 06:26:44 10° NE 06:29:43 23° E 06:32:41 10° SSE visible
29 Oct 10.4 06:03:03 10° ENE 06:04:14 11° E 06:05:24 10° ESE visible
30 Oct 6.7 07:08:51 10° NNE 07:12:33 87° E 07:16:15 10° SSW visible
30 Oct 9.9 19:17:44 10° SW 19:19:59 16° W 19:22:16 10° NW visible
